EJU13JH LIRN-LDDU

Flight info

Callsign EJU13JH
Flight time 0h 55m
Altitude 30000
Route GALTI DCT LUNAR DCT BUMOK DCT TOPNO DCT AIOSA
Aircraft A320/M-SDE2E3FGHIJ1RWXYZ/LB1

Departure

Time 2026-05-05 15:57
Airport Naples International Airport (LIRN)

Arrival

Time 2026-05-05 16:52
Airport Dubrovnik Ruđer Bošković Airport (LDDU)
Time Latitude Longitude Altitude Speed Heading
2026-05-05 15:29 40.88241 14.28806 279 ft 0 kts 328°
2026-05-05 15:39 40.88237 14.28809 278 ft 4 kts 328°
2026-05-05 15:39 40.88215 14.28828 278 ft 3 kts 328°
2026-05-05 15:39 40.88197 14.28840 284 ft 4 kts 358°
2026-05-05 15:40 40.88176 14.28831 278 ft 4 kts 49°
2026-05-05 15:40 40.88160 14.28807 283 ft 4 kts 51°
2026-05-05 15:40 40.88155 14.28798 282 ft 0 kts 53°
2026-05-05 15:52 40.88159 14.28804 283 ft 4 kts 53°
2026-05-05 15:52 40.88195 14.28868 279 ft 14 kts 53°
2026-05-05 15:53 40.88275 14.29004 274 ft 23 kts 52°
2026-05-05 15:53 40.88383 14.29188 271 ft 19 kts 52°
2026-05-05 15:53 40.88472 14.29346 265 ft 20 kts 53°
2026-05-05 15:53 40.88559 14.29495 261 ft 21 kts 52°
2026-05-05 15:54 40.88655 14.29662 256 ft 22 kts 52°
2026-05-05 15:54 40.88753 14.29831 251 ft 21 kts 53°
2026-05-05 15:54 40.88846 14.29992 245 ft 18 kts 52°
2026-05-05 15:54 40.88934 14.30144 240 ft 18 kts 53°
2026-05-05 15:55 40.89012 14.30280 236 ft 23 kts 52°
2026-05-05 15:55 40.89106 14.30440 228 ft 22 kts 48°
2026-05-05 15:55 40.89203 14.30403 227 ft 17 kts 295°
2026-05-05 15:55 40.89184 14.30305 230 ft 0 kts 237°
2026-05-05 15:56 40.89125 14.30185 235 ft 59 kts 238°
2026-05-05 15:56 40.88704 14.29285 263 ft 164 kts 238°
2026-05-05 15:57 40.88041 14.27900 1212 ft 176 kts 236°
2026-05-05 15:57 40.87217 14.26715 2531 ft 177 kts 210°
2026-05-05 15:57 40.86010 14.26435 3347 ft 187 kts 172°
2026-05-05 15:57 40.84713 14.26686 4362 ft 189 kts 174°
2026-05-05 15:58 40.83393 14.26895 5391 ft 193 kts 176°
2026-05-05 15:58 40.82046 14.27091 6383 ft 197 kts 177°
2026-05-05 15:58 40.80666 14.27286 7333 ft 201 kts 178°
2026-05-05 15:58 40.79260 14.27484 8305 ft 205 kts 178°
2026-05-05 15:59 40.77828 14.27683 9274 ft 208 kts 179°
2026-05-05 15:59 40.76376 14.27881 10252 ft 212 kts 179°
2026-05-05 15:59 40.74875 14.28083 11198 ft 215 kts 179°
2026-05-05 15:59 40.73372 14.28285 12143 ft 219 kts 178°
2026-05-05 16:00 40.71870 14.28489 13080 ft 222 kts 178°
2026-05-05 16:00 40.70321 14.28858 13960 ft 235 kts 168°
2026-05-05 16:00 40.68643 14.29487 14455 ft 260 kts 167°
2026-05-05 16:00 40.66820 14.30181 14960 ft 286 kts 167°
2026-05-05 16:01 40.64827 14.30942 15434 ft 311 kts 167°
2026-05-05 16:01 40.62664 14.31774 15844 ft 336 kts 166°
2026-05-05 16:01 40.60517 14.33164 16466 ft 357 kts 143°
2026-05-05 16:01 40.58966 14.35772 17298 ft 372 kts 117°
2026-05-05 16:02 40.58357 14.39107 18185 ft 382 kts 95°
2026-05-05 16:02 40.58443 14.42628 18982 ft 388 kts 83°
2026-05-05 16:02 40.58901 14.46154 19763 ft 394 kts 78°
2026-05-05 16:02 40.59511 14.49690 20541 ft 399 kts 76°
2026-05-05 16:03 40.60129 14.53275 21304 ft 405 kts 77°
2026-05-05 16:03 40.60681 14.56927 22083 ft 410 kts 79°
2026-05-05 16:03 40.61149 14.60649 22857 ft 416 kts 81°
2026-05-05 16:03 40.61553 14.64440 23630 ft 421 kts 83°
2026-05-05 16:04 40.61919 14.68302 24296 ft 427 kts 83°
2026-05-05 16:04 40.62273 14.72206 24962 ft 432 kts 83°
2026-05-05 16:04 40.62636 14.76153 25604 ft 437 kts 83°
2026-05-05 16:04 40.63019 14.80155 26229 ft 443 kts 82°
2026-05-05 16:05 40.63415 14.84189 26833 ft 448 kts 82°
2026-05-05 16:05 40.63823 14.88277 27433 ft 453 kts 82°
2026-05-05 16:05 40.64242 14.92416 28002 ft 458 kts 82°
2026-05-05 16:05 40.64667 14.96600 28570 ft 463 kts 82°
2026-05-05 16:06 40.65091 15.00827 29108 ft 468 kts 82°
2026-05-05 16:06 40.65516 15.05107 29670 ft 473 kts 82°
2026-05-05 16:06 40.65941 15.09420 30046 ft 477 kts 82°
2026-05-05 16:07 40.66767 15.17907 30098 ft 450 kts 82°
2026-05-05 16:07 40.67155 15.21920 30103 ft 436 kts 82°
2026-05-05 16:07 40.67536 15.25854 30104 ft 430 kts 82°
2026-05-05 16:07 40.67910 15.29715 30112 ft 419 kts 82°
2026-05-05 16:08 40.68269 15.33466 30104 ft 406 kts 82°
2026-05-05 16:08 40.68612 15.37090 30102 ft 391 kts 82°
2026-05-05 16:08 40.68942 15.40585 30100 ft 378 kts 82°
2026-05-05 16:08 40.69262 15.43964 30099 ft 365 kts 81°
2026-05-05 16:09 40.69573 15.47253 30095 ft 359 kts 82°
2026-05-05 16:09 40.70190 15.53742 30093 ft 357 kts 82°
2026-05-05 16:10 40.70798 15.60223 30100 ft 356 kts 82°
2026-05-05 16:10 40.71774 15.66584 30095 ft 351 kts 65°
2026-05-05 16:10 40.72825 15.69457 30092 ft 345 kts 53°
2026-05-05 16:11 40.74184 15.72047 30093 ft 343 kts 49°
2026-05-05 16:12 40.79754 15.82253 30086 ft 343 kts 49°
2026-05-05 16:13 40.86688 15.95058 30084 ft 343 kts 49°
2026-05-05 16:13 40.89461 16.00196 30087 ft 344 kts 50°
2026-05-05 16:14 40.94579 16.09650 30074 ft 343 kts 46°
2026-05-05 16:15 40.97957 16.13961 30069 ft 336 kts 34°
2026-05-05 16:15 41.01504 16.18008 30068 ft 336 kts 34°
2026-05-05 16:16 41.08597 16.26166 30066 ft 340 kts 35°
2026-05-05 16:17 41.13954 16.32347 30064 ft 340 kts 35°
2026-05-05 16:18 41.19297 16.38514 30058 ft 338 kts 34°
2026-05-05 16:19 41.24633 16.44677 30058 ft 340 kts 34°
2026-05-05 16:19 41.29996 16.50894 30053 ft 341 kts 34°
2026-05-05 16:20 41.37151 16.59206 30045 ft 341 kts 34°
2026-05-05 16:22 41.46025 16.69576 30047 ft 338 kts 33°
2026-05-05 16:23 41.53138 16.77896 30039 ft 340 kts 33°
2026-05-05 16:23 41.58465 16.84137 30030 ft 340 kts 33°
2026-05-05 16:24 41.61983 16.88281 30031 ft 339 kts 33°
2026-05-05 16:25 41.67300 16.94547 30035 ft 338 kts 33°
2026-05-05 16:25 41.72568 17.00765 30035 ft 338 kts 33°
2026-05-05 16:26 41.79566 17.09055 30037 ft 331 kts 32°
2026-05-05 16:27 41.83013 17.13139 30040 ft 331 kts 32°
2026-05-05 16:27 41.86455 17.17237 30028 ft 331 kts 32°
2026-05-05 16:28 41.88183 17.19287 29809 ft 332 kts 33°
2026-05-05 16:28 41.89904 17.21333 29611 ft 330 kts 33°
2026-05-05 16:28 41.91615 17.23369 29262 ft 329 kts 33°
2026-05-05 16:28 41.93326 17.25406 28909 ft 328 kts 33°
2026-05-05 16:29 41.95049 17.27397 28554 ft 326 kts 32°
2026-05-05 16:29 41.96785 17.29354 28197 ft 325 kts 32°
2026-05-05 16:29 41.98517 17.31296 27837 ft 324 kts 32°
2026-05-05 16:29 42.00245 17.33236 27469 ft 324 kts 33°
2026-05-05 16:30 42.01974 17.35184 27095 ft 324 kts 33°
2026-05-05 16:30 42.03704 17.37139 26712 ft 325 kts 33°
2026-05-05 16:30 42.05437 17.39100 26308 ft 326 kts 33°
2026-05-05 16:30 42.07176 17.41073 25907 ft 327 kts 34°
2026-05-05 16:31 42.08922 17.43060 25487 ft 329 kts 34°
2026-05-05 16:31 42.10674 17.45055 25057 ft 332 kts 36°
2026-05-05 16:31 42.12446 17.47073 24603 ft 334 kts 36°
2026-05-05 16:31 42.14228 17.49105 24143 ft 337 kts 37°
2026-05-05 16:32 42.16020 17.51152 23681 ft 340 kts 37°
2026-05-05 16:32 42.17833 17.53226 23156 ft 342 kts 37°
2026-05-05 16:32 42.19644 17.55301 22677 ft 342 kts 37°
2026-05-05 16:32 42.21460 17.57382 22220 ft 342 kts 37°
2026-05-05 16:33 42.23268 17.59454 21757 ft 341 kts 37°
2026-05-05 16:33 42.25079 17.61532 21306 ft 341 kts 37°
2026-05-05 16:33 42.26881 17.63599 20859 ft 341 kts 37°
2026-05-05 16:33 42.28691 17.65676 20399 ft 341 kts 37°
2026-05-05 16:34 42.30499 17.67749 19939 ft 341 kts 37°
2026-05-05 16:34 42.32306 17.69824 19492 ft 341 kts 37°
2026-05-05 16:34 42.34114 17.71903 19031 ft 342 kts 37°
2026-05-05 16:34 42.35926 17.73990 18582 ft 342 kts 37°
2026-05-05 16:35 42.37737 17.76079 18100 ft 343 kts 37°
2026-05-05 16:35 42.39548 17.78171 17628 ft 342 kts 37°
2026-05-05 16:35 42.41352 17.80255 17177 ft 340 kts 37°
2026-05-05 16:35 42.43148 17.82330 16752 ft 339 kts 38°
2026-05-05 16:36 42.44943 17.84405 16332 ft 339 kts 38°
2026-05-05 16:36 42.46853 17.86232 15877 ft 335 kts 26°
2026-05-05 16:36 42.48910 17.87700 15450 ft 334 kts 24°
2026-05-05 16:36 42.50975 17.89171 15035 ft 334 kts 25°
2026-05-05 16:37 42.53116 17.90302 14600 ft 328 kts
2026-05-05 16:37 42.55346 17.90221 14185 ft 317 kts 341°
2026-05-05 16:37 42.57288 17.88975 13778 ft 306 kts 318°
2026-05-05 16:37 42.58689 17.86844 13352 ft 295 kts 296°
2026-05-05 16:38 42.59645 17.84442 12982 ft 291 kts 294°
2026-05-05 16:38 42.60587 17.82023 12613 ft 289 kts 294°
2026-05-05 16:38 42.61530 17.79594 12235 ft 286 kts 294°
2026-05-05 16:38 42.62452 17.77219 11882 ft 283 kts 294°
2026-05-05 16:39 42.63357 17.74892 11531 ft 281 kts 294°
2026-05-05 16:39 42.64277 17.72532 11171 ft 278 kts 294°
2026-05-05 16:39 42.65170 17.70245 10824 ft 276 kts 295°
2026-05-05 16:39 42.66363 17.68205 10475 ft 280 kts 319°
2026-05-05 16:40 42.68130 17.67091 10127 ft 285 kts 348°
2026-05-05 16:40 42.70126 17.67212 9643 ft 288 kts 18°
2026-05-05 16:40 42.71928 17.68378 9220 ft 287 kts 29°
2026-05-05 16:40 42.73674 17.69664 8815 ft 283 kts 33°
2026-05-05 16:41 42.75089 17.71432 8455 ft 272 kts 58°
2026-05-05 16:41 42.75822 17.73726 8073 ft 260 kts 83°
2026-05-05 16:41 42.75843 17.76108 7753 ft 246 kts 104°
2026-05-05 16:41 42.75270 17.78220 7462 ft 234 kts 122°
2026-05-05 16:42 42.74504 17.80144 7170 ft 228 kts 122°
2026-05-05 16:42 42.73755 17.82028 6880 ft 225 kts 122°
2026-05-05 16:42 42.73027 17.83886 6617 ft 218 kts 122°
2026-05-05 16:42 42.72339 17.85652 6343 ft 205 kts 122°
2026-05-05 16:43 42.71688 17.87317 6071 ft 195 kts 122°
2026-05-05 16:43 42.71069 17.88902 5860 ft 184 kts 122°
2026-05-05 16:43 42.70481 17.90403 5647 ft 176 kts 122°
2026-05-05 16:43 42.69920 17.91836 5449 ft 168 kts 122°
2026-05-05 16:44 42.69380 17.93214 5259 ft 162 kts 123°
2026-05-05 16:44 42.68858 17.94544 5066 ft 157 kts 123°
2026-05-05 16:44 42.68350 17.95840 4895 ft 154 kts 123°
2026-05-05 16:44 42.67851 17.97113 4707 ft 151 kts 123°
2026-05-05 16:45 42.67361 17.98361 4535 ft 147 kts 123°
2026-05-05 16:45 42.66887 17.99569 4355 ft 143 kts 123°
2026-05-05 16:45 42.66429 18.00735 4204 ft 137 kts 122°
2026-05-05 16:45 42.65986 18.01863 4047 ft 133 kts 122°
2026-05-05 16:46 42.65559 18.02951 3896 ft 128 kts 123°
2026-05-05 16:46 42.65143 18.04006 3749 ft 126 kts 123°
2026-05-05 16:46 42.64732 18.05051 3595 ft 125 kts 123°
2026-05-05 16:46 42.64324 18.06088 3463 ft 124 kts 123°
2026-05-05 16:47 42.63917 18.07122 3312 ft 124 kts 122°
2026-05-05 16:47 42.63510 18.08155 3170 ft 124 kts 122°
2026-05-05 16:47 42.63105 18.09183 3019 ft 124 kts 122°
2026-05-05 16:47 42.62697 18.10218 2883 ft 124 kts 123°
2026-05-05 16:48 42.62291 18.11247 2743 ft 123 kts 122°
2026-05-05 16:48 42.61887 18.12273 2584 ft 122 kts 120°
2026-05-05 16:48 42.61492 18.13276 2425 ft 120 kts 121°
2026-05-05 16:48 42.61103 18.14261 2279 ft 117 kts 121°
2026-05-05 16:49 42.60721 18.15229 2144 ft 116 kts 120°
2026-05-05 16:49 42.60336 18.16204 1983 ft 116 kts 120°
2026-05-05 16:49 42.59952 18.17177 1809 ft 118 kts 118°
2026-05-05 16:49 42.59690 18.17839 1702 ft 118 kts 118°
2026-05-05 16:50 42.59299 18.18828 1532 ft 120 kts 120°
2026-05-05 16:50 42.58907 18.19809 1378 ft 120 kts 120°
2026-05-05 16:50 42.58517 18.20808 1217 ft 119 kts 119°
2026-05-05 16:50 42.58126 18.21800 1036 ft 120 kts 118°
2026-05-05 16:51 42.57734 18.22788 896 ft 120 kts 118°
2026-05-05 16:51 42.57343 18.23784 719 ft 119 kts 117°
2026-05-05 16:51 42.56953 18.24762 584 ft 118 kts 116°
2026-05-05 16:51 42.56599 18.25676 534 ft 98 kts 116°
2026-05-05 16:52 42.56341 18.26321 524 ft 58 kts 120°
2026-05-05 16:52 42.56183 18.26719 520 ft 44 kts 117°
2026-05-05 16:52 42.56036 18.27076 517 ft 43 kts 118°
2026-05-05 16:52 42.55903 18.27320 512 ft 23 kts 157°
2026-05-05 16:53 42.55782 18.27318 513 ft 17 kts 220°
2026-05-05 16:53 42.55779 18.27243 514 ft 5 kts 322°
2026-05-05 16:53 42.55815 18.27164 515 ft 15 kts 297°
2026-05-05 16:53 42.55875 18.27007 516 ft 21 kts 299°
2026-05-05 16:54 42.55895 18.26889 517 ft 6 kts 207°
2026-05-05 16:54 42.55848 18.26928 516 ft 11 kts 168°
2026-05-05 16:54 42.55789 18.26994 516 ft 12 kts 118°
2026-05-05 16:54 42.55805 18.27051 515 ft 3 kts 22°
2026-05-05 16:55 42.55807 18.27052 515 ft 0 kts 21°